Location: *
(51.5000°N, 0.1100°W)
Time: 21:00:58
(UTC+00:00)

Cosmos 1833 Rocket - Pass Details

Date: 25 May 2024
Orbit: 831 x 839 km, 71.0° (Epoch: 16 June)

Event Time Altitude Azimuth Distance (km) Brightness Sun altitude
Exits shadow 01:15:54 - 255° (WSW) 2,966 5.2 -15.5°
Reaches altitude 10° 01:17:32 10° 264° (W) 2,444 4.9 -15.4°
Maximum altitude 01:22:11 26° 320° (NW) 1,588 4.4 -15.1°
Drops below altitude 10° 01:26:53 10° 17° (NNE) 2,457 6.5 -14.9°
Sets 01:29:45 0° 30° (NNE) 3,395 7.7 -14.7°
